Springfield, CO

4:27 AM MDT on August 24, 2017 (GMT -0600)
Springfield

Weather History for KSPD - October, 2013

Change the Weather History Date:

Thursday, October 24, 2013

  Actual Average Record
Temperature  
Mean Temperature 44 °F -  
Max Temperature 56 °F 66 °F 87 °F (2011)
Min Temperature 32 °F 35 °F 24 °F (2005)
Degree Days  
Heating Degree Days 21 14  
Month to date heating degree days 292 244  
Since 1 July heating degree days 320 334  
Cooling Degree Days 0 0  
Month to date cooling degree days 2 9  
Year to date cooling degree days 1358 1026  
Moisture  
Dew Point 32 °F    
Average Humidity 72    
Maximum Humidity 100    
Minimum Humidity 43    
Precipitation  
Precipitation 0.00 in 0.05 in 0.41 in (2000)
Month to date precipitation 0.21  
Year to date precipitation 13.45  
Sea Level Pressure  
Sea Level Pressure 30.23 in    
Wind  
Wind Speed 10 mph (SSE)    
Max Wind Speed 20 mph    
Max Gust Speed 38 mph    
T = Trace of Precipitation, MM = Missing Value Source: NWS Daily Summary

Daily Weather History Graph

Daily Weather History Graph

Search for Another Location

Airport or City:

Trip Planner

Search our weather history database for the weather conditions in past years. The results will help you decide how hot, cold, wet, or windy it might be!

Date:

Astronomy

Oct. 24, 2013 Rise Set
Actual Time 7:07 AM MDT 6:01 PM MDT
Civil Twilight 6:40 AM MDT 6:27 PM MDT
Nautical Twilight 6:10 AM MDT 6:58 PM MDT
Astronomical Twilight 5:39 AM MDT 7:28 PM MDT
Moon 10:30 PM MDT 12:06 PM MDT
Length of Visible Light 11h 47m
Length of Day
10h 54m
Waning Gibbous, 70% of the Moon is Illuminated
Oct 24
Waning Gibbous
Oct 26
Last Quarter
Nov 3
New
Nov 9
First Quarter
Nov 17
Full

Hourly Weather History & Observations

Time (MDT) Temp. Windchill Dew Point Humidity Pressure Visibility Wind Dir Wind Speed Gust Speed Precip Events Conditions
12:56 AM 39.0 °F 34.8 °F 28.0 °F 65% 30.11 in - SW 5.8 mph - N/A   Unknown
1:56 AM 37.0 °F 34.5 °F 28.0 °F 70% 30.12 in - WSW 3.5 mph - N/A   Unknown
2:56 AM 37.9 °F 34.4 °F 28.9 °F 70% 30.12 in - West 4.6 mph - N/A   Unknown
3:56 AM 35.1 °F 32.2 °F 28.0 °F 76% 30.14 in - West 3.5 mph - N/A   Unknown
4:56 AM 37.0 °F 34.5 °F 28.9 °F 73% 30.16 in - ENE 3.5 mph - N/A   Unknown
5:56 AM 34.0 °F 28.8 °F 30.9 °F 89% 30.20 in - East 5.8 mph - N/A   Unknown
6:56 AM 34.0 °F 28.0 °F 33.1 °F 96% 30.25 in - ESE 6.9 mph - N/A   Unknown
7:56 AM 36.0 °F 28.5 °F 35.1 °F 97% 30.28 in - ESE 10.4 mph - N/A   Unknown
8:56 AM 39.9 °F 31.8 °F 34.0 °F 79% 30.29 in - ESE 15.0 mph - N/A   Unknown
9:56 AM 44.1 °F 37.4 °F 34.0 °F 68% 30.30 in - ESE 13.8 mph - N/A   Unknown
10:56 AM 46.9 °F - 34.0 °F 61% 30.29 in - SE 15.0 mph - N/A   Unknown
11:56 AM 50.0 °F - 34.0 °F 54% 30.28 in - SE 10.4 mph 21.9 mph N/A   Unknown
12:56 PM 53.1 °F - 34.0 °F 48% 30.25 in - SE 12.7 mph 20.7 mph N/A   Unknown
1:56 PM 55.0 °F - 34.0 °F 45% 30.22 in - SSE 16.1 mph - N/A   Unknown
2:56 PM 55.9 °F - 34.0 °F 44% 30.20 in - SSE 17.3 mph 23.0 mph N/A   Unknown
3:56 PM 55.0 °F - 34.0 °F 45% 30.21 in - South 15.0 mph 20.7 mph N/A   Unknown
4:56 PM 54.0 °F - 33.1 °F 45% 30.20 in - SSE 12.7 mph - N/A   Unknown
5:56 PM 48.9 °F - 33.1 °F 54% 30.22 in - SE 11.5 mph - N/A   Unknown
6:56 PM 45.0 °F 40.1 °F 33.1 °F 63% 30.25 in - ESE 9.2 mph - N/A   Unknown
7:56 PM 43.0 °F 37.2 °F 33.1 °F 68% 30.27 in - SE 10.4 mph - N/A   Unknown
8:56 PM 39.0 °F 32.3 °F 32.0 °F 76% 30.29 in - SE 10.4 mph - N/A   Unknown
9:56 PM 37.9 °F 32.1 °F 30.9 °F 76% 30.30 in - SE 8.1 mph - N/A   Unknown
10:56 PM 36.0 °F 30.3 °F 30.9 °F 82% 30.30 in - South 6.9 mph - N/A   Unknown
11:56 PM 34.0 °F 28.0 °F 30.0 °F 85% 30.29 in - South 6.9 mph - N/A   Unknown